カタログに戻る

DELTA 1 DEB

運用中SSO
NORAD 12284·DEBRIS·🇺🇸 United States

打ち上げ Mar 5, 1978 から Vandenberg Space Force Base

Loading…

次のパス (今後24時間)

TLE

最新Source: Space-Track

元期: Sep 13, 2026, 19:12 UTC

1 12284U 78026EC  26256.80062214  .00000676  00000-0  42870-3 0  9997
2 12284  98.8878 335.7708 0090313 224.2715 262.9942 14.05302877316774

AllMySatでDELTA 1 DEBをリアルタイム追跡

Download on the App Store